This demonstration page uses our WeatherBlox Daily Observations layout. Learn more.

Left ArrowRight Arrow

Hourly Observations for February 22, 2015

Temp ( °F °C ) Dew Point ( °F °C ) Humidity (%) Winds ( mph kmh ) Pressure ( in mb ) Visibility ( mi km ) Precip ( " mm )
12:53 am 00:53 Clear 55 12.8 25 -3.9 31 31 NNE 24 39 29.98 1015 10 16 0.00 0.00
1:53 am 01:53 Clear 53 11.7 25 -3.9 34 34 N 20 31 30.00 1016 10 16 0.00 0.00
2:53 am 02:53 Clear 52 11.1 24 -4.4 34 34 N 24 39 29.99 1016 10 16 0.00 0.00
3:53 am 03:53 Clear 52 11.1 24 -4.4 34 34 N 22 35 30.00 1016 10 16 0.00 0.00
4:53 am 04:53 Clear 52 11.1 24 -4.4 34 34 N 22 35 30.01 1016 10 16 0.00 0.00
5:53 am 05:53 Clear 51 10.6 25 -3.9 36 36 N 23 37 30.02 1017 10 16 0.00 0.00
6:53 am 06:53 Clear 51 10.6 24 -4.4 35 35 N 22 35 30.04 1017 10 16 0.00 0.00
7:53 am 07:53 Sunny 52 11.1 25 -3.9 35 35 NNE 24 39 30.06 1018 10 16 0.00 0.00
8:53 am 08:53 Sunny 54 12.2 24 -4.4 31 31 NNE 22 35 30.06 1018 10 16 0.00 0.00
9:53 am 09:53 Sunny 56 13.3 24 -4.4 29 29 NNE 26 43 30.05 1018 10 16 0.00 0.00
10:53 am 10:53 Sunny 58 14.4 22 -5.6 25 25 N 22 35 30.05 1018 10 16 0.00 0.00
11:53 am 11:53 Sunny 60 15.6 22 -5.6 23 23 NNE 25 41 30.03 1017 10 16 0.00 0.00
12:53 pm 12:53 Sunny 62 16.7 22 -5.6 21 21 N 21 33 29.99 1016 10 16 0.00 0.00
1:53 pm 13:53 Sunny 63 17.2 20 -6.7 19 19 NE 22 35 29.97 1015 10 16 0.00 0.00
2:53 pm 14:53 Sunny 64 17.8 18 -7.8 17 17 NNE 21 33 29.96 1015 10 16 0.00 0.00
3:53 pm 15:53 Sunny 63 17.2 17 -8.3 17 17 NNE 25 41 29.95 1014 10 16 0.00 0.00
4:53 pm 16:53 Sunny 62 16.7 15 -9.4 16 16 NNE 24 39 29.96 1015 10 16 0.00 0.00
5:53 pm 17:53 Clear 59 15 14 -10 17 17 NNE 17 28 29.98 1015 10 16 0.00 0.00
6:53 pm 18:53 Clear 58 14.4 13 -10.6 17 17 NE 17 28 30.00 1016 10 16 0.00 0.00
7:53 pm 19:53 Clear 57 13.9 13 -10.6 17 17 NNE 14 22 30.02 1017 10 16 0.00 0.00
8:53 pm 20:53 Clear 55 12.8 12 -11.1 18 18 N 14 22 30.04 1017 10 16 0.00 0.00
9:53 pm 21:53 Clear 55 12.8 10 -12.2 16 16 NNE 16 26 30.05 1018 10 16 0.00 0.00
10:53 pm 22:53 Clear 54 12.2 7 -13.9 15 15 N 15 24 30.07 1018 10 16 0.00 0.00
11:53 pm 23:53 Clear 54 12.2 7 -13.9 15 15 N 13 20 30.07 1018 10 16 0.00 0.00

Powered by AerisWeather